Date String (YYYY-MM-DD hh:mm:ss) UTC,Instrument flags,absolute air pressure of the measurement (hPa),sample flow rate (lpm),inlet stack bypass flow (lpm),air temperature of the measurement (°C),ambient temperature measured by the external sensor (°C),aerosol sample conditioner tube jacket temperature (°C),OPC LED temperature (°C),internal box temperature (°C),relative humidity of the measurement (%),span deviation,mass concentration of particles derived from Lorenz-Mie calculation of OPC scattering (μg/m³),mass concentration of particles derived from Lorenz-Mie calculation of OPC scattering (μg/m³),mass concentration of particles derived from Lorenz-Mie calculation of OPC scattering (μg/m³)
DateTimeUTC,F1_M11,P_M11,Q1_M11,Q2_M11,T1_M11,T2_M11,T3_M11,T4_M11,T5_M11,U1_M11,ZSPAN_M11,X2_M11,X0_M11,X1_M11
2024-03-30 10:00:00,SystemResetWarning,0824.5,5.00,000.00,020.5,019.9,000.0,029.0,022.3,29.8,-001.1,0011.11,0013.75,0010.67
2024-03-30 10:01:00,SystemResetWarning,0824.5,5.00,000.00,020.5,019.9,000.0,029.0,022.3,29.9,-001.4,0011.15,0014.22,0010.68
2024-03-30 10:02:00,SystemResetWarning,0824.5,4.99,000.00,020.5,019.9,000.0,029.0,022.3,29.8,-001.5,0011.21,0014.34,0010.72
2024-03-30 10:03:00,SystemResetWarning,0824.5,5.00,000.00,020.5,019.9,000.0,029.0,022.3,29.8,-001.4,0011.25,0014.39,0010.74
2024-03-30 10:04:00,SystemResetWarning,0824.5,5.00,000.00,020.5,019.9,000.0,029.0,022.3,29.8,-001.5,0011.24,0014.44,0010.73
2024-03-30 10:05:00,SystemResetWarning,0824.5,4.99,000.00,020.5,019.9,000.0,029.0,022.3,29.8,-001.6,0011.24,0014.49,0010.72
2024-03-30 10:06:00,SystemResetWarning,0824.5,5.01,000.00,020.5,019.9,000.0,029.0,022.3,29.8,-001.4,0011.21,0014.47,0010.69
2024-03-30 10:07:00,SystemResetWarning,0824.4,5.01,000.00,020.5,019.9,000.0,029.0,022.3,29.9,-001.3,0011.15,0014.21,0010.65
2024-03-30 10:08:00,SystemResetWarning,0824.4,5.00,000.00,020.5,019.9,000.0,029.0,022.3,29.9,-001.3,0011.07,0013.45,0010.61
2024-03-30 10:09:00,SystemResetWarning,0824.4,5.00,000.00,020.5,019.9,000.0,029.0,022.3,29.9,-001.2,0011.03,0013.43,0010.59
2024-03-30 10:10:00,SystemResetWarning,0824.4,5.00,000.00,020.5,019.9,000.0,029.0,022.3,29.8,-001.2,0011.07,0013.84,0010.60
2024-03-30 10:11:00,SystemResetWarning,0824.3,4.99,000.00,020.5,019.8,000.0,029.0,022.3,29.8,-001.2,0011.09,0013.67,0010.64
2024-03-30 10:12:00,SystemResetWarning,0824.4,5.00,000.00,020.5,019.8,000.0,029.0,022.3,29.8,-001.3,0011.08,0013.16,0010.65
2024-03-30 10:13:00,SystemResetWarning,0824.4,5.00,000.00,020.5,019.8,000.0,029.0,022.3,30.0,-001.3,0011.08,0013.18,0010.65
2024-03-30 10:14:00,SystemResetWarning,0824.3,4.99,000.00,020.5,019.8,000.0,029.0,022.3,29.9,-001.5,0011.09,0013.19,0010.66
2024-03-30 10:15:00,SystemResetWarning,0824.3,5.01,000.00,020.5,019.8,000.0,029.0,022.3,29.9,-001.5,0011.09,0013.11,0010.68
2024-03-30 10:16:00,SystemResetWarning,0824.3,5.01,000.00,020.5,019.8,000.0,029.0,022.3,29.9,-001.4,0011.10,0013.13,0010.71
2024-03-30 10:17:00,SystemResetWarning,0824.3,5.00,000.00,020.5,019.8,000.0,029.0,022.3,29.9,-001.5,0011.13,0013.17,0010.75
2024-03-30 10:18:00,SystemResetWarning,0824.4,5.00,000.00,020.5,019.8,000.0,029.0,022.3,29.9,-001.5,0011.23,0013.37,0010.79
2024-03-30 10:19:00,SystemResetWarning,0824.4,5.00,000.00,020.5,019.8,000.0,029.0,022.3,29.8,-001.0,0011.31,0013.79,0010.85
2024-03-30 10:20:00,SystemResetWarning,0824.3,5.00,000.00,020.5,019.8,000.0,029.0,022.3,29.8,-001.0,0011.38,0013.93,0010.92
2024-03-30 10:21:00,SystemResetWarning,0824.3,4.99,000.00,020.5,019.8,000.0,029.0,022.3,29.8,-001.1,0011.42,0013.66,0010.97
2024-03-30 10:22:00,SystemResetWarning,0824.3,5.01,000.00,020.5,019.8,000.0,029.0,022.3,29.8,-000.7,0011.48,0013.79,0011.01
2024-03-30 10:23:00,SystemResetWarning,0824.3,5.00,000.00,020.5,019.9,000.0,029.0,022.3,29.9,-000.2,0011.60,0014.22,0011.10
2024-03-30 10:24:00,SystemResetWarning,0824.3,5.00,000.00,020.5,019.9,000.0,029.0,022.3,30.0,-000.1,0011.67,0015.02,0011.18
2024-03-30 10:25:00,SystemResetWarning,0824.3,5.00,000.00,020.5,019.9,000.0,029.0,022.3,29.9,-000.2,0011.76,0015.20,0011.25
2024-03-30 10:26:00,SystemResetWarning,0824.3,5.00,000.00,020.5,019.9,000.0,029.0,022.3,29.9,-000.1,0011.85,0015.34,0011.33
2024-03-30 10:27:00,SystemResetWarning,0824.3,5.00,000.00,020.5,019.9,000.0,029.0,022.3,29.9,0000.0,0011.95,0015.55,0011.41
2024-03-30 10:28:00,SystemResetWarning,0824.3,4.99,000.00,020.5,019.9,000.0,029.0,022.3,29.8,0000.1,0012.01,0015.82,0011.47
2024-03-30 10:29:00,SystemResetWarning,0824.3,4.99,000.00,020.5,019.9,000.0,029.0,022.3,29.8,-000.0,0012.07,0015.95,0011.56
2024-03-30 10:30:00,SystemResetWarning,0824.1,5.01,000.00,020.5,019.9,000.0,029.0,022.3,29.8,-000.2,0012.20,0015.86,0011.68
2024-03-30 10:31:00,SystemResetWarning,0824.1,5.02,000.00,020.5,019.9,000.0,029.0,022.3,29.8,-000.5,0012.39,0015.95,0011.88
2024-03-30 10:32:00,SystemResetWarning,0824.1,5.00,000.00,020.5,019.9,000.0,029.0,022.3,29.8,-000.4,0012.59,0016.14,0012.09
2024-03-30 10:33:00,SystemResetWarning,0824.1,5.00,000.00,020.5,019.9,000.0,029.0,022.3,29.8,-000.3,0012.84,0016.19,0012.31
2024-03-30 10:34:00,SystemResetWarning,0824.1,5.00,000.00,020.5,019.9,000.0,029.0,022.3,29.7,-000.4,0013.04,0016.32,0012.51
2024-03-30 10:35:00,SystemResetWarning,0824.1,5.00,000.00,020.5,019.9,000.0,029.0,022.3,29.6,-000.5,0013.29,0015.83,0012.76
2024-03-30 10:36:00,SystemResetWarning,0824.2,5.00,000.00,020.5,019.9,000.0,029.0,022.3,29.6,-000.7,0013.59,0016.53,0013.05
2024-03-30 10:37:00,SystemResetWarning,0824.2,5.00,000.00,020.5,019.9,000.0,029.0,022.3,29.6,-001.0,0013.82,0017.26,0013.29
2024-03-30 10:38:00,SystemResetWarning,0824.3,5.00,000.00,020.5,019.9,000.0,029.0,022.3,29.7,-001.2,0014.01,0017.38,0013.47
2024-03-30 10:39:00,SystemResetWarning,0824.3,5.00,000.00,020.5,019.9,000.0,029.0,022.3,30.1,-001.2,0014.10,0017.31,0013.55
2024-03-30 10:40:00,SystemResetWarning,0824.3,5.00,000.00,020.5,019.9,000.0,029.0,022.3,30.1,-001.4,0014.09,0017.25,0013.55
2024-03-30 10:41:00,SystemResetWarning,0824.2,5.00,000.00,020.5,019.9,000.0,029.0,022.3,30.0,-001.3,0013.99,0017.60,0013.47
2024-03-30 10:42:00,SystemResetWarning,0824.2,5.00,000.00,020.5,019.9,000.0,029.0,022.3,30.0,-001.1,0013.82,0017.38,0013.31
2024-03-30 10:43:00,SystemResetWarning,0824.1,5.01,000.00,020.5,019.9,000.0,029.0,022.3,30.0,-001.0,0013.61,0017.33,0013.07
2024-03-30 10:44:00,SystemResetWarning,0824.1,5.00,000.00,020.5,019.9,000.0,029.0,022.3,29.9,-001.5,0013.33,0017.42,0012.82
2024-03-30 10:45:00,SystemResetWarning,0824.2,5.01,000.00,020.5,019.9,000.0,029.0,022.3,29.9,-001.6,0013.04,0016.90,0012.56
2024-03-30 10:46:00,SystemResetWarning,0824.1,5.00,000.00,020.5,019.8,000.0,029.0,022.3,29.9,-001.6,0012.74,0016.56,0012.26
2024-03-30 10:47:00,SystemResetWarning,0824.1,4.99,000.00,020.5,019.8,000.0,029.0,022.3,29.9,-001.4,0012.39,0016.45,0011.95
2024-03-30 10:48:00,SystemResetWarning,0824.1,4.99,000.00,020.5,019.8,000.0,029.0,022.3,29.9,-001.0,0012.10,0015.59,0011.67
2024-03-30 10:49:00,SystemResetWarning,0824.1,5.01,000.00,020.5,019.8,000.0,029.0,022.3,29.9,-000.7,0011.90,0015.33,0011.47
2024-03-30 10:50:00,SystemResetWarning,0824.1,5.01,000.00,020.5,019.8,000.0,029.0,022.2,29.9,-000.6,0011.85,0015.23,0011.43
2024-03-30 10:51:00,SystemResetWarning,0824.2,5.00,000.00,020.5,019.8,000.0,029.0,022.3,29.9,-000.2,0011.87,0015.17,0011.46
2024-03-30 10:52:00,SystemResetWarning,0824.1,5.00,000.00,020.5,019.8,000.0,029.0,022.3,29.9,-000.0,0011.95,0014.81,0011.51
2024-03-30 10:53:00,SystemResetWarning,0824.1,4.99,000.00,020.5,019.8,000.0,029.0,022.3,29.9,0000.2,0012.00,0014.84,0011.54
2024-03-30 10:54:00,SystemResetWarning,0824.1,5.00,000.00,020.5,019.8,000.0,029.0,022.3,29.9,0000.2,0012.08,0014.81,0011.62
2024-03-30 10:55:00,SystemResetWarning,0824.2,5.01,000.00,020.5,019.8,000.0,029.0,022.3,29.9,0000.2,0012.11,0014.57,0011.65
2024-03-30 10:56:00,SystemResetWarning,0824.2,5.00,000.00,020.4,019.8,000.0,029.0,022.2,29.9,0000.1,0012.12,0014.61,0011.67
2024-03-30 10:57:00,SystemResetWarning,0824.2,5.00,000.00,020.4,019.8,000.0,029.0,022.2,29.9,0000.2,0012.13,0014.64,0011.67
2024-03-30 10:58:00,SystemResetWarning,0824.2,5.00,000.00,020.4,019.8,000.0,029.0,022.2,29.9,0000.2,0012.10,0013.97,0011.65
2024-03-30 10:59:00,SystemResetWarning,0824.2,4.99,000.00,020.4,019.8,000.0,029.0,022.2,29.9,0000.3,0012.06,0013.85,0011.60
